sat.trackr.live / text

‹ back to catalog

STARLINK-2400

NORAD 47817 · 2021-018AG

PAYLOAD ACTIVE UNKNOWN

§ Identity

Operator
Country
US
Launch date
2021-03-11
Launch site
AFETR
Launch vehicle
Mass (kg)
RCS (m²)

Purposes: comms

External: N2YO · Heavens-Above · Gunter

§ Orbital elements

Epoch: 2026-09-11T22:28:05.253024Z

Period
94.01 min
Inclination
53.1610°
Eccentricity
0.0001489
Mean motion
15.31704089 rev/d
Perigee alt
469.7 km
Apogee alt
471.7 km
Semi-major
6,848.9 km
B*
-3.5578e-5
RAAN
96.3853°
Arg perigee
131.7205°
Mean anomaly
228.3924°
Rev number
30,525

§ Raw data

STARLINK-24001 47817U 21018AG  26254.93617191 -.00001469  00000+0 -35578-4 0  99982 47817  53.1610  96.3853 0001489 131.7205 228.3924 15.31704089305253

JSON: /api/v1/satellites/47817 · /tle

For live sub-satellite position, see the globe view (requires WebGL).

§ Visibility from observer

Set your observer location to see the next 7 days of passes ≥ 10°. The values pass through the URL so the page stays shareable.

No JS? Fill the form by hand. The geolocation button needs JavaScript.